SXM-9

Last updated on Wed Oct 29 2025 00:02:51 GMT+0000 (Coordinated Universal Time)

1 62259U 24234A 25301.11155662 -.00000195 00000+0 00000+0 0 9991 2 62259 0.0195 296.3807 0003769 20.7128 34.6608 1.00271054 3247
UTC large
Height (km)
Speed (km/s)
/
Latitude / Longitude
Inclination (degrees)
Orbital Period (minutes)
Azimuth
Elevation
Range (km)
Doppler Factor

Next 0 passes for location: London (51.5072 / 0.1276)

Sorry there are no passes over London.